Regional Weather Roundup
Issued by NWS Midland/Odessa, TX

Skip options and go directly to product.
Home | Oldest Version | Previous Version | Current Version | All | Graphics & Text | Save Text | Print | Product List | Glossary On

Skip product version selection by date and time.   
917
ASUS44 KMAF 060010
RWRMAF
MIDLAND AREA WEATHER ROUNDUP
NATIONAL WEATHER SERVICE MIDLAND TX
600 PM CST FRI FEB 05 2016

...IN SOUTHWEST TEXAS AND SOUTHEAST NEW MEXICO...

CITY           SKY/WX    TMP DP  RH WIND       PRES   REMARKS
ALPINE         CLEAR     48   9  20 N16G25    30.33R
ANDREWS        FAIR      49  10  20 NW17G23   30.28R
ARTESIA        CLEAR     50   9  18 N18G24    30.32R
BIG SPRING     CLEAR     50  17  26 NW14      30.27R
CARLSBAD       CLEAR     51   3  14 NW25G33   30.30R
DRYDEN           N/A     60  21  22 N6        30.21R
FORT STOCKTON  CLEAR     53  13  20 N20G25    30.27R
GUAD PASS      CLEAR     44   5  20 E10       30.30R WCI  39
HOBBS          MOCLDY    48   9  20 NW18G30   30.29R
MARFA          CLEAR     51   5  15 NW17      30.28R
MIDLAND AIRPK  PTCLDY    52  13  21 N15G22    30.28R
MIDLAND INTL   MOCLDY    51  14  22 N18       30.27R
ODESSA         MOCLDY    52  13  21 N17G26    30.28R
PECOS          CLEAR     55  13  19 N15G23    30.29R
PRESIDIO       FAIR      61   4  10 NW16G22   30.24R
SEMINOLE       PTCLDY    48  16  27 N18G30    30.30R
SNYDER           N/A     50  17  26 NW10      30.25R
WINK           CLEAR     54  10  17 N15G25    30.28R
$$
...OTHER STATIONS IN TEXAS...

CITY           SKY/WX    TMP DP  RH WIND       PRES   REMARKS
ABILENE        CLOUDY    56  24  29 SW8       30.19S
AMARILLO       CLOUDY    39  23  52 N21G28    30.27R WCI  29
AUSTIN         MOCLDY    56  31  38 S6        30.27S
BROWNSVILLE    CLOUDY    63  49  60 SE8       30.24R
CORPUS CHRISTI CLOUDY    61  47  59 E12       30.27S
DALLAS FTW     MOCLDY    52  22  30 S13       30.28R
DEL RIO        CLEAR     61  31  32 SE9       30.21S
EL PASO        CLEAR     52  -3  10 N17       30.33R
HOUSTON INT    PTCLDY    52  32  46 SE13      30.36R
LUBBOCK        PTCLDY    44  14  29 N18G29    30.25R WCI  36
SAN ANGELO     PTCLDY    57  24  28 SW13      30.21S
SAN ANTONIO    CLOUDY    58  33  39 SE10      30.26R
WACO           CLEAR     52  21  29 SE9       30.30R
WICHITA FALLS  NOT AVBL
$$
...OTHER LOCATIONS IN NEW MEXICO...

CITY           SKY/WX    TMP DP  RH WIND       PRES   REMARKS
ALAMAGORDO     CLEAR     48   3  15 NW17      30.33R
ALBUQUERQUE    CLEAR     41   2  19 N12       30.36S WCI  34
CANNON AFB     NOT AVBL
CLOVIS         PTCLDY    39  18  41 N18G30    30.31R WCI  30
HOLLOMAN AFB   CLEAR     48   4  16 NW18      30.33R
ROSWELL        CLEAR     50   7  17 N17G25    30.32R
RUIDOSO          N/A     34   0  23 N10       30.33S WCI  26
SANTA FE       CLEAR     36   6  28 N10       30.33R WCI  28
TRUTH OR CONSE CLEAR     48  -2  12 NE14      30.34R
TUCUMCARI      PTCLDY    43  14  31 NE20G25   30.31R WCI  34
$$

USA.gov is the U.S. government's official web portal to all federal, state and local government web resources and services.